Flag for Austria Weather past 2 weeks in Eferding, Upper Austria, Austria

Now
59 °F

Light snow. Passing clouds.


Feels Like: N/A
Forecast: 54 / 67 °F
Wind: N/A

Location: Linz / Hoersching-Flughafen

Current Time: Aug 31, 2014 at 1:04:50 AM

Latest Report: Aug 31, 2014 at 12:00 AM


Visibility: 0 mi

Pressure: 30.07 "Hg

Humidity: 99%

Dew point: 58 °F

Location of EferdingLocation

Historic Weather in Eferding — Graph

°F

Eferding temperature yesterday

Maximum temperature yesterday: 66 °F (at 6:00 PM)
Minimum temperature yesterday: 60 °F (at 8:00 AM)
Average temperature yesterday: 63 °F

Past Weeks' High & Low Weather Summary

 TemperatureHumidityPressure
High76 °F (Aug 18, 4:00 PM)98% (Aug 27, 12:00 AM)30.16 "Hg (Aug 27, 12:00 AM)
Low44 °F (Aug 25, 6:00 AM)35% (Aug 28, 6:00 PM)29.73 "Hg (Aug 26, 7:00 PM)
Average60 °F80%30.00 "Hg
* Reported Aug 15 11:00 PM — Aug 30 11:00 PM, Eferding, Weather by CustomWeather, © 2014

Note: Actual official high and low records may vary slightly from our data, if they occured in-between our weather recording intervals... More about our weather records

Advertising

Eferding weather history for previous 24 hours

 ConditionsComfort  
Time TempWeatherWind HumidityBarometerVisibility
11:00 PM
Aug 30
60 °FLight rain. Passing clouds.N/A98%30.07 "Hg0 mi
10:00 PM62 °FPassing clouds.N/A97%30.08 "Hg4 mi
9:00 PM64 °FOvercast.N/A94%30.07 "Hg6 mi
8:00 PM65 °FOvercast.N/A90%30.06 "Hg11 mi
7:00 PM66 °FOvercast.N/A86%30.05 "Hg19 mi
6:00 PM66 °FOvercast.N/A84%30.06 "Hg18 mi
5:00 PM66 °FOvercast.N/A84%30.06 "Hg13 mi
4:00 PM66 °FOvercast.N/A84%30.07 "Hg19 mi
3:00 PM66 °FLow clouds.N/A86%30.09 "Hg16 mi
2:00 PM64 °FLow clouds.N/A83%30.10 "Hg25 mi
1:00 PM64 °FLow clouds.N/A90%30.11 "Hg17 mi
12:00 PM63 °FLight rain. Low clouds.N/A87%30.12 "Hg6 mi
11:00 AM62 °FLight rain. Low clouds.N/A93%30.11 "Hg6 mi
10:00 AM61 °FLight rain. Low clouds.N/A96%30.10 "Hg3 mi
9:00 AM60 °FLight rain. Low clouds.N/A97%30.10 "Hg4 mi
8:00 AM60 °FHeavy rain. Low clouds.N/A96%30.09 "Hg4 mi
7:00 AM61 °FLight rain. Overcast.N/A96%30.07 "Hg3 mi
6:00 AM61 °FHeavy rain. Overcast.N/A96%30.06 "Hg4 mi
5:00 AM61 °FOvercast.N/A97%30.06 "Hg4 mi
4:00 AM61 °FRain showers. Overcast.N/A97%30.06 "Hg4 mi
3:00 AM61 °FOvercast.N/A98%30.06 "Hg3 mi
2:00 AM62 °FLight rain. Low clouds.N/A96%30.06 "Hg4 mi
1:00 AM62 °FOvercast.N/A97%30.06 "Hg4 mi
Weather by CustomWeather, © 2014

See weather overviewHow to use our weather pages